KA7IKB-2 Weather Reports


time (UTC)temp
F
wind
direction
speed
knots
gust
knots
rain 1hr
in
rain 24hr
in
rain mn
in
humidity
%
barometer
mb
20240614121621 46 282 0.0 0.0 0.00 0.00 0.00 83 1021.8
20240614121116 46 281 0.0 0.0 0.00 0.00 0.00 83 1021.8
20240614120610 47 281 0.0 0.0 0.00 0.00 0.00 83 1021.9
20240614120103 47 281 0.0 0.0 0.00 0.00 0.00 83 1021.7
20240614115558 47 281 0.0 0.0 0.00 0.00 0.00 84 1021.7
20240614115052 47 281 0.0 0.0 0.00 0.00 0.00 84 1021.6
20240614114545 47 281 0.0 0.0 0.00 0.00 0.00 84 1021.6
20240614114039 47 281 0.0 0.0 0.00 0.00 0.00 84 1021.6
20240614112522 47 282 0.0 0.0 0.00 0.00 0.00 81 1021.6
20240614112015 47 281 0.0 0.0 0.00 0.00 0.00 80 1021.5
20240614111509 47 281 0.0 0.0 0.00 0.00 0.00 81 1021.5
20240614111003 47 281 0.0 0.0 0.00 0.00 0.00 80 1021.4
20240614110457 47 281 0.0 0.9 0.00 0.00 0.00 80 1021.4
20240614105949 47 281 0.0 0.9 0.00 0.00 0.00 79 1021.4
20240614105446 47 281 0.0 0.0 0.00 0.00 0.00 79 1021.5
20240614104939 47 281 0.0 0.0 0.00 0.00 0.00 79 1021.5
20240614104433 47 281 0.0 0.0 0.00 0.00 0.00 79 1021.5
20240614103928 47 281 0.0 0.0 0.00 0.00 0.00 79 1021.5
20240614103653 47 281 0.0 0.9 0.00 0.00 0.00 78 1021.6
20240614102916 47 281 0.0 1.7 0.00 0.00 0.00 78 1021.5
20240614102410 48 281 0.0 1.7 0.00 0.00 0.00 77 1021.5
20240614101904 48 281 0.0 2.6 0.00 0.00 0.00 77 1021.4
20240614101355 48 281 0.9 2.6 0.00 0.00 0.00 77 1021.4
20240614101123 48 281 0.9 2.6 0.00 0.00 0.00 77 1021.5
20240614100342 48 281 0.0 2.6 0.00 0.00 0.00 76 1021.4
20240614095840 48 281 0.0 0.0 0.00 0.00 0.00 76 1021.3
20240614095333 48 281 0.0 0.0 0.00 0.00 0.00 75 1021.4
20240614094825 48 281 0.0 0.0 0.00 0.00 0.00 75 1021.4
20240614094321 48 281 0.0 0.0 0.00 0.00 0.00 75 1021.3
20240614093815 48 282 0.0 0.0 0.00 0.00 0.00 74 1021.3
20240614093539 49 281 0.0 0.0 0.00 0.00 0.00 74 1021.2
20240614092804 49 281 0.0 1.7 0.00 0.00 0.00 73 1021.2
20240614092258 49 281 0.0 1.7 0.00 0.00 0.00 73 1021.2
20240614091751 49 281 0.0 1.7 0.00 0.00 0.00 73 1021.2
20240614090739 49 281 0.0 0.0 0.00 0.00 0.00 72 1021.3
20240614090234 49 281 0.0 0.0 0.00 0.00 0.00 71 1021.2
20240614085727 49 281 0.0 0.0 0.00 0.00 0.00 71 1021.2
20240614085221 50 281 0.0 1.7 0.00 0.00 0.00 70 1021.2
20240614084716 50 281 0.0 1.7 0.00 0.00 0.00 70 1021.1
20240614084209 50 281 0.0 0.0 0.00 0.00 0.00 69 1021.1
20240614083936 50 281 0.0 0.0 0.00 0.00 0.00 69 1021.1
20240614083157 50 281 0.0 0.0 0.00 0.00 0.00 69 1021.1
20240614082649 50 281 0.0 0.0 0.00 0.00 0.00 67 1021.1
20240614082145 51 281 0.0 0.0 0.00 0.00 0.00 67 1021.0
20240614081640 51 281 0.0 0.0 0.00 0.00 0.00 66 1021.0
20240614081134 51 281 0.0 0.0 0.00 0.00 0.00 65 1021.0
20240614080624 51 281 0.0 0.0 0.00 0.00 0.00 65 1020.9
20240614080118 52 281 0.0 0.0 0.00 0.00 0.00 64 1020.9
20240614075844 52 281 0.0 1.7 0.00 0.00 0.00 64 1021.0
20240614075110 52 281 0.0 1.7 0.00 0.00 0.00 63 1021.0
20240614074603 52 281 0.0 0.0 0.00 0.00 0.00 62 1020.9
20240614074058 53 281 0.0 1.7 0.00 0.00 0.00 61 1020.8
20240614073551 53 281 0.0 1.7 0.00 0.00 0.00 61 1020.8
20240614073047 53 281 0.0 0.9 0.00 0.00 0.00 60 1020.8
20240614072810 53 281 0.0 0.0 0.00 0.00 0.00 59 1020.8
20240614071528 54 282 0.0 0.9 0.00 0.00 0.00 58 1020.6
20240614071250 54 282 0.0 1.7 0.00 0.00 0.00 58 1020.6
20240614070743 54 281 0.0 1.7 0.00 0.00 0.00 57 1020.5
20240614070012 54 282 0.0 1.7 0.00 0.00 0.00 56 1020.6
20240614065504 54 259 0.0 1.7 0.00 0.00 0.00 57 1020.5
20240614065225 54 259 0.9 1.7 0.00 0.00 0.00 57 1020.4
20240614064452 54 259 0.0 1.7 0.00 0.00 0.00 56 1020.3
20240614063946 55 259 0.0 1.7 0.00 0.00 0.00 55 1020.0
20240614063439 55 259 0.0 1.7 0.00 0.00 0.00 55 1020.0
20240614062428 55 259 0.9 1.7 0.00 0.00 0.00 55 1019.9
20240614061922 55 260 0.0 1.7 0.00 0.00 0.00 54 1019.9
20240614061416 55 260 0.0 1.7 0.00 0.00 0.00 54 1019.8
20240614060909 56 260 0.0 1.7 0.00 0.00 0.00 54 1019.7
20240614060403 56 260 0.0 1.7 0.00 0.00 0.00 53 1019.7
20240614055858 56 260 0.0 1.7 0.00 0.00 0.00 52 1019.6
20240614055352 57 260 0.0 2.6 0.00 0.00 0.00 51 1019.6
20240614054845 57 260 0.9 2.6 0.00 0.00 0.00 50 1019.4
20240614054337 57 260 0.9 1.7 0.00 0.00 0.00 50 1019.3
20240614053833 58 260 0.0 1.7 0.00 0.00 0.00 50 1019.3
20240614053328 58 260 0.0 1.7 0.00 0.00 0.00 49 1019.2
20240614052829 58 260 0.0 1.7 0.00 0.00 0.00 47 1019.2
20240614052329 58 276 0.0 1.7 0.00 0.00 0.00 45 1019.2
20240614051830 58 276 0.0 2.6 0.00 0.00 0.00 44 1019.1
20240614051559 58 276 0.0 2.6 0.00 0.00 0.00 42 1019.1
20240614050824 58 277 0.0 1.7 0.00 0.00 0.00 41 1019.0
20240614050325 58 320 0.0 1.7 0.00 0.00 0.00 40 1018.9
20240614045824 58 256 0.0 1.7 0.00 0.00 0.00 40 1019.0
20240614045326 58 256 0.9 3.5 0.00 0.00 0.00 41 1018.7
20240614044825 58 256 0.9 3.5 0.00 0.00 0.00 39 1018.7
20240614044323 58 251 0.9 2.6 0.00 0.00 0.00 40 1018.6
20240614043821 59 243 1.7 5.2 0.00 0.00 0.00 40 1018.6
20240614043321 59 240 1.7 5.2 0.00 0.00 0.00 42 1018.5
20240614042825 59 260 0.9 2.6 0.00 0.00 0.00 44 1018.4
20240614042321 59 260 0.9 2.6 0.00 0.00 0.00 43 1018.4
20240614041817 59 260 0.9 2.6 0.00 0.00 0.00 43 1018.2
20240614041317 60 260 0.9 2.6 0.00 0.00 0.00 44 1018.2
20240614040818 60 260 0.9 2.6 0.00 0.00 0.00 44 1018.2
20240614040318 61 260 0.9 3.5 0.00 0.00 0.00 45 1018.2
20240614035809 61 260 0.9 3.5 0.00 0.00 0.00 44 1018.2
20240614035537 61 260 0.9 3.5 0.00 0.00 0.00 45 1018.2
20240614035030 62 236 0.0 2.6 0.00 0.00 0.00 46 1018.2
20240614034254 62 236 0.9 5.2 0.00 0.00 0.00 46 1018.1
20240614033748 63 235 0.9 5.2 0.00 0.00 0.00 47 1018.2
20240614033241 63 240 0.9 3.5 0.00 0.00 0.00 48 1018.2
20240614032736 63 238 0.9 3.5 0.00 0.00 0.00 47 1018.2
20240614032230 63 175 0.0 3.5 0.00 0.00 0.00 49 1018.1
20240614031724 64 332 0.0 4.3 0.00 0.00 0.00 52 1017.9
20240614031218 64 332 0.0 4.3 0.00 0.00 0.00 53 1017.9
20240614030712 64 300 0.0 0.0 0.00 0.00 0.00 52 1018.0
20240614030202 64 300 0.0 0.9 0.00 0.00 0.00 52 1018.0
20240614025700 65 300 0.0 2.6 0.00 0.00 0.00 54 1017.9
20240614025154 65 247 0.0 2.6 0.00 0.00 0.00 54 1017.9
20240614024647 65 332 0.0 2.6 0.00 0.00 0.00 55 1017.9
20240614024142 65 332 0.0 2.6 0.00 0.00 0.00 55 1017.8
20240614023635 65 354 0.0 2.6 0.00 0.00 0.00 56 1017.8
20240614023130 66 354 0.0 5.2 0.00 0.00 0.00 53 1017.7
20240614022624 66 354 0.0 5.2 0.00 0.00 0.00 55 1017.7
20240614022118 67 12 0.0 2.6 0.00 0.00 0.00 54 1017.6
20240614021609 67 16 0.0 3.5 0.00 0.00 0.00 54 1017.7
20240614021105 67 24 0.0 3.5 0.00 0.00 0.00 54 1017.6
20240614020559 67 347 0.0 3.5 0.00 0.00 0.00 54 1017.6
20240614020054 68 347 0.0 3.5 0.00 0.00 0.00 54 1017.4
20240614015545 68 57 0.9 7.0 0.00 0.00 0.00 54 1017.3
20240614015312 68 11 0.0 7.0 0.00 0.00 0.00 52 1017.1
20240614014536 68 99 0.0 2.6 0.00 0.00 0.00 54 1017.0
20240614014030 69 132 0.0 2.6 0.00 0.00 0.00 54 1016.9
20240614013524 69 40 0.0 0.9 0.00 0.00 0.00 55 1016.8
20240614013018 69 40 0.0 0.9 0.00 0.00 0.00 54 1016.8
20240614012742 70 40 0.0 2.6 0.00 0.00 0.00 52 1016.8
20240614012005 70 40 0.0 2.6 0.00 0.00 0.00 53 1016.7
20240614011459 71 73 0.0 5.2 0.00 0.00 0.00 52 1016.7
20240614010953 71 72 0.9 5.2 0.00 0.00 0.00 51 1016.6
20240614010447 71 39 0.0 3.5 0.00 0.00 0.00 48 1016.5
20240614010210 71 83 0.0 2.6 0.00 0.00 0.00 51 1016.5
20240614005436 72 83 0.0 2.6 0.00 0.00 0.00 51 1016.4
20240614004930 72 40 0.0 1.7 0.00 0.00 0.00 48 1016.3
20240614004423 73 39 0.0 3.5 0.00 0.00 0.00 47 1016.3
20240614003917 73 42 0.0 3.5 0.00 0.00 0.00 50 1016.4
20240614003413 73 356 0.0 1.7 0.00 0.00 0.00 44 1016.3
20240614002905 74 356 0.0 1.7 0.00 0.00 0.00 48 1016.3
20240614002359 74 356 0.0 2.6 0.00 0.00 0.00 46 1016.2
20240614001853 74 37 0.9 4.3 0.00 0.00 0.00 44 1016.2
20240614001345 75 30 0.9 4.3 0.00 0.00 0.00 42 1016.1
20240614000843 75 13 0.0 4.3 0.00 0.00 0.00 42 1016.1
20240614000336 75 80 0.9 3.5 0.00 0.00 0.00 43 1016.1
20240613235827 75 80 0.9 3.5 0.00 0.00 0.00 43 1016.1
20240613235321 75 20 0.0 2.6 0.00 0.00 0.00 41 1016.0
20240613234818 76 83 0.9 3.5 0.00 0.00 0.00 41 1016.1
20240613234312 76 83 0.9 3.5 0.00 0.00 0.00 41 1016.1
20240613233805 76 12 0.0 3.5 0.00 0.00 0.00 42 1015.9
20240613233259 76 42 0.0 0.9 0.00 0.00 0.00 39 1016.0
20240613232750 77 41 0.0 0.9 0.00 0.00 0.00 40 1015.9
20240613232248 77 41 0.0 2.6 0.00 0.00 0.00 41 1016.0
20240613231743 77 25 0.0 3.5 0.00 0.00 0.00 40 1015.9
20240613231504 77 66 0.0 3.5 0.00 0.00 0.00 39 1015.9
20240613230730 77 18 0.0 0.0 0.00 0.00 0.00 41 1016.0
20240613230224 77 18 0.0 1.7 0.00 0.00 0.00 40 1015.9
20240613225714 77 18 0.0 1.7 0.00 0.00 0.00 39 1016.0
20240613225212 78 66 0.0 2.6 0.00 0.00 0.00 41 1015.9
20240613224705 78 66 0.0 2.6 0.00 0.00 0.00 39 1016.0
20240613224156 78 6 0.0 2.6 0.00 0.00 0.00 40 1016.0
20240613223651 78 6 0.0 3.5 0.00 0.00 0.00 42 1016.1
20240613222642 77 12 0.0 1.7 0.00 0.00 0.00 41 1016.1
20240613222136 77 12 0.9 3.5 0.00 0.00 0.00 43 1016.2
20240613221629 77 321 0.9 3.5 0.00 0.00 0.00 43 1016.2
20240613221124 77 37 0.0 6.1 0.00 0.00 0.00 45 1016.2
20240613220615 76 74 0.0 6.1 0.00 0.00 0.00 40 1016.3
20240613220342 76 48 0.0 3.5 0.00 0.00 0.00 43 1016.3
20240613215603 76 47 0.9 5.2 0.00 0.00 0.00 42 1016.3
20240613215100 76 58 0.9 5.2 0.00 0.00 0.00 41 1016.3
20240613214553 76 52 0.0 3.5 0.00 0.00 0.00 45 1016.3
20240613214047 76 318 0.0 3.5 0.00 0.00 0.00 46 1016.4
20240613213541 76 343 0.0 2.6 0.00 0.00 0.00 42 1016.3
20240613213035 76 312 0.9 4.3 0.00 0.00 0.00 43 1016.4
20240613212529 76 35 0.9 4.3 0.00 0.00 0.00 42 1016.5
20240613212254 76 48 0.9 3.5 0.00 0.00 0.00 44 1016.6
20240613211517 75 34 0.9 4.3 0.00 0.00 0.00 46 1016.5
20240613211011 75 297 0.9 4.3 0.00 0.00 0.00 48 1016.6
20240613210505 74 42 0.9 4.3 0.00 0.00 0.00 45 1016.6
20240613210227 74 47 0.9 4.3 0.00 0.00 0.00 44 1016.7
20240613205451 74 50 0.9 3.5 0.00 0.00 0.00 46 1016.7
20240613204947 74 45 0.9 5.2 0.00 0.00 0.00 48 1016.8
20240613204441 74 38 0.9 5.2 0.00 0.00 0.00 45 1016.8
20240613203427 73 35 1.7 4.3 0.00 0.00 0.00 48 1016.9
20240613202923 73 249 1.7 4.3 0.00 0.00 0.00 46 1017.0
20240613202645 73 46 1.7 7.0 0.00 0.00 0.00 46 1017.1
20240613201910 73 56 1.7 7.0 0.00 0.00 0.00 45 1017.1
20240613201405 74 4 1.7 7.0 0.00 0.00 0.00 49 1017.1
20240613200900 73 51 1.7 6.1 0.00 0.00 0.00 49 1017.1
20240613200353 74 39 1.7 6.1 0.00 0.00 0.00 46 1017.1
20240613195848 74 29 0.9 4.3 0.00 0.00 0.00 48 1017.2
20240613195339 73 41 0.9 7.0 0.00 0.00 0.00 48 1017.2
20240613194833 73 47 0.0 7.0 0.00 0.00 0.00 48 1017.2
20240613194329 72 248 0.0 4.3 0.00 0.00 0.00 46 1017.3
20240613193825 72 210 0.9 6.1 0.00 0.00 0.00 49 1017.3
20240613193315 71 284 0.9 6.1 0.00 0.00 0.00 47 1017.2
20240613192808 71 54 0.9 4.3 0.00 0.00 0.00 47 1017.3
20240613192308 71 232 0.9 4.3 0.00 0.00 0.00 48 1017.4
20240613191800 71 285 0.9 3.5 0.00 0.00 0.00 50 1017.4
20240613191254 70 221 0.9 4.3 0.00 0.00 0.00 53 1017.4
20240613190745 70 232 0.9 4.3 0.00 0.00 0.00 50 1017.4
20240613190512 70 283 0.9 3.5 0.00 0.00 0.00 51 1017.5
20240613185230 69 355 0.9 7.0 0.00 0.00 0.00 52 1017.5
20240613184724 69 326 0.9 4.3 0.00 0.00 0.00 52 1017.5
20240613184215 68 36 0.9 3.5 0.00 0.00 0.00 52 1017.4
20240613183710 68 249 0.9 3.5 0.00 0.00 0.00 54 1017.5
20240613183448 68 25 0.9 3.5 0.00 0.00 0.00 54 1017.5
20240613182933 68 23 0.9 3.5 0.00 0.00 0.00 55 1017.6
20240613182151 68 356 0.9 4.3 0.00 0.00 0.00 54 1017.7
20240613181648 67 52 0.9 4.3 0.00 0.00 0.00 54 1017.7
20240613181141 67 272 0.9 6.1 0.00 0.00 0.00 54 1017.7
20240613180904 67 33 0.9 6.1 0.00 0.00 0.00 54 1017.8
20240613180127 67 35 0.9 4.3 0.00 0.00 0.00 57 1017.8
20240613175623 66 349 0.9 4.3 0.00 0.00 0.00 58 1017.8
20240613175118 65 332 0.9 5.2 0.00 0.00 0.00 58 1017.8
20240613174612 65 30 0.9 5.2 0.00 0.00 0.00 57 1017.8
20240613174105 65 37 0.9 3.5 0.00 0.00 0.00 58 1017.8
20240613173828 64 324 0.9 5.2 0.00 0.00 0.00 59 1017.8
20240613173324 64 5 1.7 6.1 0.00 0.00 0.00 60 1017.8
20240613172552 64 31 2.6 6.1 0.00 0.00 0.00 56 1017.8
20240613172308 64 42 1.7 7.8 0.00 0.00 0.00 57 1017.9
20240613171532 64 27 1.7 7.8 0.00 0.00 0.00 59 1018.0
20240613171022 63 35 1.7 4.3 0.00 0.00 0.00 59 1018.0
20240613170519 64 55 0.9 3.5 0.00 0.00 0.00 56 1018.0
20240613170013 64 321 1.7 4.3 0.00 0.00 0.00 59 1018.0
20240613165507 64 258 1.7 7.8 0.00 0.00 0.00 60 1018.0
20240613165001 63 33 1.7 7.8 0.00 0.00 0.00 59 1017.9
20240613164456 64 54 0.9 5.2 0.00 0.00 0.00 58 1018.0
20240613163949 64 260 0.9 4.3 0.00 0.00 0.00 58 1017.9
20240613163444 64 24 0.9 4.3 0.00 0.00 0.00 58 1018.0
20240613162431 64 37 0.9 3.5 0.00 0.00 0.00 61 1018.0
20240613161925 63 37 0.9 3.5 0.00 0.00 0.00 61 1018.1
20240613160913 62 52 0.9 6.1 0.00 0.00 0.00 62 1018.1
20240613160408 61 358 0.0 1.7 0.00 0.00 0.00 62 1018.2
20240613155902 61 2 0.0 1.7 0.00 0.00 0.00 63 1018.2
20240613155352 61 2 0.9 6.1 0.00 0.00 0.00 64 1018.1
20240613155122 60 341 0.9 6.1 0.00 0.00 0.00 63 1018.1
20240613154615 60 37 0.0 1.7 0.00 0.00 0.00 66 1018.1
20240613153838 59 231 0.0 1.7 0.00 0.00 0.00 66 1018.1
20240613153332 59 232 0.0 1.7 0.00 0.00 0.00 65 1018.0
20240613152825 59 231 0.0 1.7 0.00 0.00 0.00 67 1018.0
20240613152320 58 231 0.0 2.6 0.00 0.00 0.00 69 1018.1
20240613151813 58 231 0.0 2.6 0.00 0.00 0.00 67 1018.2
20240613151308 58 349 0.0 1.7 0.00 0.00 0.00 69 1018.2
20240613150804 57 349 0.0 2.6 0.00 0.00 0.00 69 1018.2
20240613150524 57 349 0.0 3.5 0.00 0.00 0.00 69 1018.2
20240613145751 57 336 0.9 4.3 0.00 0.00 0.00 69 1018.2
20240613145240 57 343 0.0 4.3 0.00 0.00 0.00 70 1018.3
20240613144738 56 341 0.0 1.7 0.00 0.00 0.00 72 1018.4
20240613144231 56 345 0.0 4.3 0.00 0.00 0.00 72 1018.4
20240613143725 55 345 0.0 4.3 0.00 0.00 0.00 73 1018.4
20240613143220 55 328 0.0 2.6 0.00 0.00 0.00 75 1018.4
20240613142711 54 327 0.0 2.6 0.00 0.00 0.00 75 1018.3
20240613142207 54 327 0.0 1.7 0.00 0.00 0.00 77 1018.2
20240613141934 53 47 0.0 0.9 0.00 0.00 0.00 77 1018.1
20240613141155 53 47 0.0 2.6 0.00 0.00 0.00 79 1018.1
20240613140650 52 47 0.0 2.6 0.00 0.00 0.00 81 1018.0
20240613140143 51 28 0.0 2.6 0.00 0.00 0.00 82 1018.0
20240613135635 51 20 0.0 1.7 0.00 0.00 0.00 83 1018.0
20240613135404 50 20 0.0 0.9 0.00 0.00 0.00 84 1018.0
20240613134625 50 20 0.0 0.9 0.00 0.00 0.00 83 1018.0
20240613134350 50 20 0.0 0.0 0.00 0.00 0.00 84 1018.0
20240613133614 50 20 0.0 0.0 0.00 0.00 0.00 84 1018.0
20240613133107 49 20 0.0 0.0 0.00 0.00 0.00 84 1018.0
20240613132601 49 20 0.0 0.0 0.00 0.00 0.00 85 1018.0
20240613132056 49 20 0.0 0.0 0.00 0.00 0.00 85 1018.0
20240613131549 49 20 0.0 0.0 0.00 0.00 0.00 85 1018.0
20240613131041 49 20 0.0 0.0 0.00 0.00 0.00 85 1018.0
20240613130536 48 20 0.0 1.7 0.00 0.00 0.00 85 1018.0
20240613130031 48 20 0.0 1.7 0.00 0.00 0.00 85 1017.9
20240613125525 48 21 0.0 1.7 0.00 0.00 0.00 85 1017.9
20240613125019 48 312 0.0 0.0 0.00 0.00 0.00 84 1017.9
20240613124514 48 312 0.0 0.0 0.00 0.00 0.00 84 1017.9
20240613124008 48 312 0.0 0.0 0.00 0.00 0.00 83 1017.9
20240613123502 49 312 0.0 0.0 0.00 0.00 0.00 83 1017.9
20240613122956 49 312 0.0 0.0 0.00 0.00 0.00 83 1017.9
20240613122721 49 312 0.0 0.0 0.00 0.00 0.00 83 1017.9
20240613121944 49 312 0.0 0.0 0.00 0.00 0.00 83 1018.0